Regional Weather Roundup
Issued by NWS Goodland, KS

Home | Current Version | Previous Version | Text Only | Print | Product List | Glossary On
Versions: 1 2 3 4 5 6 7 8 9 10 11 12 13 14 15 16 17 18 19 20 21 22 23 24 25 26 27 28 29 30 31 32 33 34 35 36 37 38 39 40 41 42 43 44 45 46 47 48 49 50
000
ASUS43 KGLD 291059
RWRGLD

GOODLAND FORECAST AREA HOURLY WEATHER ROUNDUP
NATIONAL WEATHER SERVICE GOODLAND KS
500 AM MDT THU JUN 29 2017

...OFFICIAL OBSERVATIONS...

CITY           SKY/WX    TMP DP  RH WIND       PRES   REMARKS
GOODLAND KS    PTCLDY    62  57  83 N12G23    29.83R
HILL CITY KS   CLOUDY    66  61  84 NW28G36   29.72F
IMPERIAL NEB   CLOUDY    60  53  77 SE7       29.81R
MCCOOK NEB     CLOUDY    66  57  72 E13       29.79F
AKRON CO       CLEAR     56  49  77 SE7       29.88R
BURLINGTON CO  CLEAR     59  56  89 NW6       29.86R
LIMON CO       CLEAR     50  49  96 CALM      29.93R
$$

...UNOFFICIAL OBSERVATIONS...

CITY           SKY/WX    TMP DP  RH WIND       PRES   REMARKS
LENORA KS        N/A     64  32  30 MISG        N/A
NORTON KS      RAIN      64  59  82 NW10      29.85F
SHARON SPRINGS   N/A     60  55  84 CALM        N/A
TRENTON NEB      N/A     64  32  30 E7          N/A
KIT CARSON CO    N/A     59  54  84 CALM        N/A
YUMA CO        FAIR      54  52  94 E6        29.85R
$$




USA.gov is the U.S. government's official web portal to all federal, state and local government web resources and services.